Regional Weather Roundup
Issued by NWS

Home | Current Version | Previous Version | Graphics & Text | Print | Product List | Glossary On
Versions: 1 2 3 4 5 6 7 8 9 10 11 12 13 14 15 16 17 18 19 20 21 22 23 24 25 26 27 28 29 30 31 32 33 34 35 36 37 38 39 40 41 42 43 44 45 46 47 48 49 50
000
ASUS45 KTFX 121119
RWRMT
MONTANA HOURLY WEATHER ROUNDUP
NATIONAL WEATHER SERVICE GREAT FALLS MT
519 AM MDT SAT JUL 12 2014

NOTE: "FAIR" INDICATES FEW OR NO CLOUDS BELOW 12000 FEET WITH NO
SIGNIFICANT WEATHER AND/OR OBSTRUCTIONS TO VISIBILITY.

* THESE STATIONS ARE NOT UNDER NWS QUALITY CONTROL. THEY DO NOT
   REPORT WEATHER SUCH AS PRECIPITATION OR FOG.

MTZ001>007-043-121200-
WEST OF THE DIVIDE
CITY           SKY/WX    TMP DP  RH WIND       PRES   REMARKS
KALISPELL      CLEAR     54  48  80 NW3       30.13R
MISSOULA       CLEAR     57  43  60 N5        30.16R
BUTTE          PTCLDY    57  48  72 CALM      30.28R
MULLAN PASS    CLEAR     63  41  45 SE7       30.29R
* ESSEX        N/A       56  48  75 S10        N/A
* LINCOLN      N/A       47  45  93 NW1        N/A
* LOOKOUT PASS N/A       58  47  67 N/A        N/A
* POLSON       N/A       59  53  81 N/A        N/A
* RONAN APT    CLEAR     52  48  86 N/A        N/A
* SEELEY LAKE  N/A       45  42  89 N/A        N/A
* THOMP F APT  CLEAR     55  46  72 NE4        N/A
* YAAK HILL    N/A       57  49  75 N/A        N/A
$$

MTZ008-052>055-121200-
SOUTHWEST MONTANA
CITY           SKY/WX    TMP DP  RH WIND       PRES   REMARKS
BOZEMAN        PTCLDY    57  55  93 NW8       30.23R
DILLON         PTCLDY    57  55  93 CALM      30.25R
W YELLOWSTONE  CLOUDY    50  48  93 CALM      30.34S
* THREE FORKS  PTCLDY    61  39  44 N/A        N/A
* BOULDER HILL N/A       55  49  80 N/A        N/A
* MONIDA PASS  N/A       54  49  83 W4         N/A
* RAYNOLDS PAS N/A       52  21  30 E1         N/A
* WHITEHALL    N/A       61  55  81 VRB6       N/A
* WISE RIVER   N/A       53  46  77 SE4        N/A
$$

MTZ009>010-012-014-046-048-049-054-121200-
EAST SLOPES AND CENTRAL MONTANA
CITY           SKY/WX    TMP DP  RH WIND       PRES   REMARKS
CUT BANK       CLEAR     48  46  93 W5        30.20S
GREAT FALLS    CLEAR     52  50  93 SW6       30.18S
HELENA         CLEAR     61  52  72 CALM      30.20S
MALMSTROM AFB  CLEAR     57  52  83 SW3       30.20R
* CONRAD       CLEAR     48  48 100 N/A        N/A
* DEARBORN     N/A       55  52  90 S1         N/A
* EAST GLACIER N/A       49  46  89 NW8        N/A
* MONARCH      N/A       50  46  86 SE1G6      N/A
* PENDROY      N/A       51  50  96 W4         N/A
* ROGERS PASS  N/A       54  49  83 N2         N/A
* SAINT MARY   N/A       43  42  96 SE3        N/A
* SWEET GRASS  N/A       58  52  81 S8         N/A
* WHITE SULPH  N/A       58  49  72 NE7        N/A
$$

MTZ011-013-016-021-035-040-045-047-050-051-121200-
NORTH CENTRAL MONTANA
CITY           SKY/WX    TMP DP  RH WIND       PRES   REMARKS
HAVRE          CLEAR     52  50  93 SW5       30.15R
* FORT BENTON  CLEAR     57  52  83 CALM      30.17S
* CHESTER      N/A       50  46  86 N3         N/A
* DENTON       N/A       51  50  96 S9         N/A
* GEYSER       N/A       51  50  96 S6         N/A
* JUDITH GAP   N/A       57  52  83 N/A        N/A
* LOMA         N/A       59  54  84 E1         N/A
$$

MTZ017>020-022>027-061-062-121200-
NORTHEAST MONTANA
CITY           SKY/WX    TMP DP  RH WIND       PRES   REMARKS
GLASGOW        CLOUDY    59  55  87 CALM      30.13R
GLENDIVE       MOCLDY    63  50  63 E3        30.14R
JORDAN         MOCLDY    64  52  65 E6        30.14R
SIDNEY         PTCLDY    57  52  83 CALM      30.15R
WOLF POINT     PTCLDY    54  50  86 CALM      30.13R
* BEAVER HILL  N/A       59  56  90 E4         N/A
* CIRCLE       N/A       59  55  87 N/A        N/A
* LINDSAY DVD  N/A       58  54  87 NE9        N/A
* NAVAJO       N/A       57  49  75 NW6        N/A
$$

MTZ028>042-056>058-121200-
SOUTHCENTRAL AND SOUTHEAST MONTANA
CITY           SKY/WX    TMP DP  RH WIND       PRES   REMARKS
BAKER          MOCLDY    59  57  93 SE6       30.13R
BILLINGS       CLOUDY    64  52  65 W8        30.19R
LIVINGSTON     CLOUDY    61  57  87 SW9       30.21F
MILES CITY     MOCLDY    63  57  81 NE6       30.11R
* LAUREL APT   CLOUDY    63  52  68 N/A        N/A
* ROUNDUP APT  CLOUDY    63  50  63 N/A        N/A
* ALZADA       N/A       61  56  84 N/A        N/A
* HYSHAM       N/A       62  55  78 VRB3       N/A
* REED POINT   N/A       61  59  93 SW8        N/A
* ROSCOE HILL  N/A       58  53  84 SW5        N/A
$$

REGIONAL REPORTS...DAKOTAS
CITY           SKY/WX    TMP DP  RH WIND       PRES   REMARKS
WILLISTON      CLEAR     52  48  86 CALM      30.12R
DICKINSON      LGT RAIN  61  57  87 E3        30.13R
CROSBY         N/A       52  52 100 SW5       30.10S
TIOGA          CLEAR     46  46 100 W3        30.15R
WATFORD CITY   CLEAR     50  50 100 CALM      30.11R
BISMARCK       CLOUDY    64  55  73 N3        30.10R
GRAND FORKS    MOCLDY    55  52  90 W5        30.02S
FARGO          CLEAR     59  55  87 CALM      30.02F
BUFFALO SD     MOCLDY    61  57  87 NE10      30.09S
RAPID CITY     PTCLDY    63  57  81 N5        30.12R
$$

REGIONAL REPORTS...WYOMING/IDAHO/WASHINGTON
CITY           SKY/WX    TMP DP  RH WIND       PRES   REMARKS
GILLETTE       PTCLDY    57  55  93 S7        30.17S
SHERIDAN       PTCLDY    59  55  87 SE5       30.16R
CODY           MOCLDY    57  52  83 NE7       30.26R
YELLOWSTONE LA MOCLDY    48  46  93 CALM      30.43S
SALMON         PTCLDY    59  48  67 CALM      30.15R
MULLAN PASS    CLEAR     63  41  45 SE7       30.29S
SAND POINT     CLEAR     54  50  86 CALM      30.10R
SPOKANE        FAIR      64  46  52 CALM      30.07R
$$

REGIONAL REPORTS...ALBERTA
CITY           SKY/WX    TMP DP  RH WIND       PRES   REMARKS
CALGARY        PTCLDY    55  50  83 SW9       30.18S
LETHBRIDGE     FOG       50  50 100 SW7       30.18R VSB 1
MEDICINE HAT   CLEAR     52  50  93 SW5       30.15S
EDMONTON       FAIR      46  45  96 S7        30.10R
WATERTON GATE  N/A       46  45  96 SW6        N/A
CARDSTON       N/A       54  54 100 SW5        N/A
MILK RIVER     N/A       48  48 100 NW6        N/A
$$

REGIONAL REPORTS...SASKATCHEWAN
CITY           SKY/WX    TMP DP  RH WIND       PRES   REMARKS
SWIFT CURRENT  CLEAR     54  50  86 SW12G18   30.12S
REGINA         FAIR      48  48 100 W7        30.07S
VAL MARIE      N/A       48  46  93 NW1        N/A
ASSINIBOIA     N/A       52  50  93 W8         N/A
CORONACH       N/A       45  45 100 W1         N/A

$$




USA.gov is the U.S. government's official web portal to all federal, state and local government web resources and services.